CZ-6A DEB, 55869

Orbit data source: Space-Track

CZ-6A DEB, 55869 is space debris in SSO originally from a launch on Fri, 11 Nov 2022 UTC launched from the Taiyaun Space Center, China (TSC). Debris objects in space refer to the collection of defunct objects orbiting the Earth. Examples of debris include non-operational satellites, rocket bodies, and fragments generated from explosions, collisions, or faulty payload assembly.

Loading next visibility...
Identifier
55869, 2022-151ZR
Orbit
SSO
Country
Flag of CNCN / PRC
Related business
Manufacturer
SAST
Mission
Spacecraft
Bus & Motor
Unknown
Mass
Unknown
Launch date (UTC)
2022-11-11 (4 years ago)
Launch vehicle
Unknown
Launch site
Taiyaun Space Center, China (TSC)
Object type
Payload
Rocket body
Debris
Shape & HBR
Unknown shape, 0.1 m
Radar Cross Section
Medium (>0.1 m² and <1 m²)

Expand to show TLE details & history
Last TLE update: 1 day ago

TLE from 1 day ago
0 CZ-6A DEB
1 55869U 22151ZR  26263.18041739  .00005884  00000-0  86260-3 0  9996
2 55869  98.6363 338.3130 0065937 339.4160  20.4392 14.74515045192241
Epoch: 2026-09-20T04:19Z
TLE epoch observation values (Epoch: 2026-09-20T04:19:48.062Z)
Latitude
-0.00002°
Longitude
-85.71555°
Altitude
606.307 km
Speed
7.58 km/s
True Right ascension
22h 33m 15s
True Declination
0° 00' 00"
Sunlit
Object was in full shadow at epoch
Visualization orbit readout
Latitude
Unknown
Longitude
Unknown
Altitude
Unknown
Speed
Unknown
Apparent Right ascension
Unknown
Apparent Declination
Unknown
Sunlit
N/A
Visualization observer readout
Local Sidereal Time
03:11:03
Azimuth
Unknown
Elevation
Unknown
Doppler factor
Unknown
Orbital elements
Apogee altitude
690.074 km
Perigee altitude
597.473 km
Semi-major axis
7,021.91 km
Eccentricity
0.00659
Inclination
98.6363°
RAAN
338.313°
Arg. of periapsis
339.416°
True anomaly
20.70511°
Mean anomaly
20.4392°
Eccentric anomaly
20.57195°
Mean motion
3.68859 °/min
Orbital period
97.6 mins
BSTAR
0.0008626
Loading maneuver chart data...
Computing Atmospheric mass density...
Loading historical data...
Loading historical data...
Loading historical data...
Loading historical data...
Loading historical data...
Loading historical data...
Loading historical data...

Documentation

Showing up to 5 results
|